Year,Month,Day,Hour,Minute,Value (Times are PST for temperature in C)
2012,09,24,00,00,11.90
2012,09,24,00,01,11.90
2012,09,24,00,02,11.90
2012,09,24,00,03,11.90
2012,09,24,00,04,11.90
2012,09,24,00,05,11.80
2012,09,24,00,06,11.80
2012,09,24,00,07,11.80
2012,09,24,00,08,11.80
2012,09,24,00,09,11.80
2012,09,24,00,10,11.80
2012,09,24,00,11,11.80
2012,09,24,00,12,11.80
2012,09,24,00,13,11.80
2012,09,24,00,14,11.80
2012,09,24,00,15,11.80
2012,09,24,00,16,11.80
2012,09,24,00,17,11.80
2012,09,24,00,18,11.80
2012,09,24,00,19,11.70
2012,09,24,00,20,11.70
2012,09,24,00,21,11.80
2012,09,24,00,22,11.70
2012,09,24,00,23,11.70
2012,09,24,00,24,11.70
2012,09,24,00,25,11.70
2012,09,24,00,26,11.70
2012,09,24,00,27,11.70
2012,09,24,00,28,11.60
2012,09,24,00,29,11.60
2012,09,24,00,30,11.60
2012,09,24,00,31,11.60
2012,09,24,00,32,11.60
2012,09,24,00,33,11.60
2012,09,24,00,34,11.50
2012,09,24,00,35,11.50
2012,09,24,00,36,11.50
2012,09,24,00,37,11.40
2012,09,24,00,38,11.40
2012,09,24,00,39,11.40
2012,09,24,00,40,11.40
2012,09,24,00,41,11.40
2012,09,24,00,42,11.40
2012,09,24,00,43,11.40
2012,09,24,00,44,11.40
2012,09,24,00,45,11.40
2012,09,24,00,46,11.30
2012,09,24,00,47,11.30
2012,09,24,00,48,11.30
2012,09,24,00,49,11.30
2012,09,24,00,50,11.30
2012,09,24,00,51,11.30
2012,09,24,00,52,11.30
2012,09,24,00,53,11.30
2012,09,24,00,54,11.30
2012,09,24,00,55,11.30
2012,09,24,00,56,11.30
2012,09,24,00,57,11.30
2012,09,24,00,58,11.40
2012,09,24,00,59,11.40
2012,09,24,01,00,11.40
2012,09,24,01,01,11.40
2012,09,24,01,02,11.40
2012,09,24,01,03,11.40
2012,09,24,01,04,11.40
2012,09,24,01,05,11.40
2012,09,24,01,06,11.40
2012,09,24,01,07,11.40
2012,09,24,01,08,11.40
2012,09,24,01,09,11.40
2012,09,24,01,10,11.40
2012,09,24,01,11,11.40
2012,09,24,01,12,11.40
2012,09,24,01,13,11.40
2012,09,24,01,14,11.40
2012,09,24,01,15,11.30
2012,09,24,01,16,11.30
2012,09,24,01,17,11.30
2012,09,24,01,18,11.30
2012,09,24,01,19,11.30
2012,09,24,01,20,11.30
2012,09,24,01,21,11.30
2012,09,24,01,22,11.30
2012,09,24,01,23,11.30
2012,09,24,01,24,11.30
2012,09,24,01,25,11.30
2012,09,24,01,26,11.30
2012,09,24,01,27,11.30
2012,09,24,01,28,11.30
2012,09,24,01,29,11.30
2012,09,24,01,30,11.30
2012,09,24,01,31,11.30
2012,09,24,01,32,11.30
2012,09,24,01,33,11.30
2012,09,24,01,34,11.30
2012,09,24,01,35,11.30
2012,09,24,01,36,11.30
2012,09,24,01,37,11.30
2012,09,24,01,38,11.30
2012,09,24,01,39,11.30
2012,09,24,01,40,11.30
2012,09,24,01,41,11.30
2012,09,24,01,42,11.30
2012,09,24,01,43,11.30
2012,09,24,01,44,11.30
2012,09,24,01,45,11.20
2012,09,24,01,46,11.20
2012,09,24,01,47,11.20
2012,09,24,01,48,11.10
2012,09,24,01,49,11.10
2012,09,24,01,50,11.10
2012,09,24,01,51,11.00
2012,09,24,01,52,11.00
2012,09,24,01,53,11.00
2012,09,24,01,54,11.00
2012,09,24,01,55,10.90
2012,09,24,01,56,10.90
2012,09,24,01,57,10.90
2012,09,24,01,58,10.90
2012,09,24,01,59,10.90
2012,09,24,02,00,10.90
2012,09,24,02,01,10.90
2012,09,24,02,02,10.90
2012,09,24,02,03,10.90
2012,09,24,02,04,10.90
2012,09,24,02,05,10.90
2012,09,24,02,06,10.90
2012,09,24,02,07,10.90
2012,09,24,02,08,10.90
2012,09,24,02,09,10.90
2012,09,24,02,10,10.90
2012,09,24,02,11,10.90
2012,09,24,02,12,10.90
2012,09,24,02,13,10.90
2012,09,24,02,14,10.80
2012,09,24,02,15,10.80
2012,09,24,02,16,10.80
2012,09,24,02,17,10.80
2012,09,24,02,18,10.80
2012,09,24,02,19,10.80
2012,09,24,02,20,10.80
2012,09,24,02,21,10.80
2012,09,24,02,22,10.80
2012,09,24,02,23,10.80
2012,09,24,02,24,10.80
2012,09,24,02,25,10.80
2012,09,24,02,26,10.70
2012,09,24,02,27,10.70
2012,09,24,02,28,10.70
2012,09,24,02,29,10.70
2012,09,24,02,30,10.70
2012,09,24,02,31,10.70
2012,09,24,02,32,10.70
2012,09,24,02,33,10.70
2012,09,24,02,34,10.70
2012,09,24,02,35,10.70
2012,09,24,02,36,10.70
2012,09,24,02,37,10.70
2012,09,24,02,38,10.70
2012,09,24,02,39,10.60
2012,09,24,02,40,10.60
2012,09,24,02,41,10.60
2012,09,24,02,42,10.60
2012,09,24,02,43,10.60
2012,09,24,02,44,10.60
2012,09,24,02,45,10.60
2012,09,24,02,46,10.60
2012,09,24,02,47,10.60
2012,09,24,02,48,10.60
2012,09,24,02,49,10.60
2012,09,24,02,50,10.60
2012,09,24,02,51,10.50
2012,09,24,02,52,10.50
2012,09,24,02,53,10.50
2012,09,24,02,54,10.50
2012,09,24,02,55,10.40
2012,09,24,02,56,10.40
2012,09,24,02,57,10.40
2012,09,24,02,58,10.40
2012,09,24,02,59,10.30
2012,09,24,03,00,10.30
2012,09,24,03,01,10.30
2012,09,24,03,02,10.30
2012,09,24,03,03,10.30
2012,09,24,03,06,10.30
2012,09,24,03,07,10.30
2012,09,24,03,08,10.30
2012,09,24,03,09,10.30
2012,09,24,03,10,10.30
2012,09,24,03,11,10.20
2012,09,24,03,12,10.20
2012,09,24,03,13,10.20
2012,09,24,03,14,10.20
2012,09,24,03,15,10.20
2012,09,24,03,16,10.20
2012,09,24,03,17,10.20
2012,09,24,03,18,10.20
2012,09,24,03,19,10.10
2012,09,24,03,20,10.10
2012,09,24,03,21,10.10
2012,09,24,03,22,10.10
2012,09,24,03,23,10.10
2012,09,24,03,24,10.10
2012,09,24,03,25,10.10
2012,09,24,03,26,10.20
2012,09,24,03,27,10.20
2012,09,24,03,28,10.20
2012,09,24,03,29,10.20
2012,09,24,03,30,10.20
2012,09,24,03,31,10.20
2012,09,24,03,32,10.20
2012,09,24,03,33,10.20
2012,09,24,03,34,10.20
2012,09,24,03,35,10.20
2012,09,24,03,36,10.20
2012,09,24,03,37,10.20
2012,09,24,03,38,10.20
2012,09,24,03,39,10.20
2012,09,24,03,40,10.20
2012,09,24,03,41,10.20
2012,09,24,03,42,10.20
2012,09,24,03,43,10.20
2012,09,24,03,44,10.20
2012,09,24,03,45,10.20
2012,09,24,03,46,10.20
2012,09,24,03,47,10.20
2012,09,24,03,48,10.20
2012,09,24,03,49,10.20
2012,09,24,03,50,10.20
2012,09,24,03,51,10.20
2012,09,24,03,52,10.20
2012,09,24,03,53,10.20
2012,09,24,03,54,10.20
2012,09,24,03,55,10.20
2012,09,24,03,56,10.20
2012,09,24,03,57,10.20
2012,09,24,03,58,10.20
2012,09,24,03,59,10.20
2012,09,24,04,00,10.20
2012,09,24,04,01,10.20
2012,09,24,04,02,10.20
2012,09,24,04,03,10.20
2012,09,24,04,04,10.20
2012,09,24,04,05,10.20
2012,09,24,04,06,10.10
2012,09,24,04,07,10.10
2012,09,24,04,08,10.10
2012,09,24,04,09,10.10
2012,09,24,04,10,10.10
2012,09,24,04,11,10.10
2012,09,24,04,12,10.10
2012,09,24,04,13,10.10
2012,09,24,04,14,10.10
2012,09,24,04,15,10.10
2012,09,24,04,16,10.10
2012,09,24,04,17,10.10
2012,09,24,04,18,10.10
2012,09,24,04,19,10.20
2012,09,24,04,20,10.20
2012,09,24,04,21,10.20
2012,09,24,04,22,10.20
2012,09,24,04,23,10.20
2012,09,24,04,24,10.20
2012,09,24,04,25,10.20
2012,09,24,04,26,10.20
2012,09,24,04,27,10.20
2012,09,24,04,28,10.20
2012,09,24,04,29,10.20
2012,09,24,04,30,10.20
2012,09,24,04,31,10.20
2012,09,24,04,32,10.20
2012,09,24,04,33,10.20
2012,09,24,04,34,10.20
2012,09,24,04,35,10.20
2012,09,24,04,36,10.20
2012,09,24,04,37,10.20
2012,09,24,04,38,10.20
2012,09,24,04,39,10.20
2012,09,24,04,40,10.20
2012,09,24,04,41,10.20
2012,09,24,04,42,10.30
2012,09,24,04,43,10.30
2012,09,24,04,44,10.30
2012,09,24,04,45,10.30
2012,09,24,04,46,10.30
2012,09,24,04,47,10.30
2012,09,24,04,48,10.30
2012,09,24,04,49,10.30
2012,09,24,04,50,10.40
2012,09,24,04,51,10.40
2012,09,24,04,52,10.40
2012,09,24,04,53,10.40
2012,09,24,04,54,10.40
2012,09,24,04,55,10.40
2012,09,24,04,56,10.40
2012,09,24,04,57,10.40
2012,09,24,04,58,10.30
2012,09,24,04,59,10.30
2012,09,24,05,00,10.30
2012,09,24,05,01,10.30
2012,09,24,05,02,10.30
2012,09,24,05,03,10.20
2012,09,24,05,04,10.20
2012,09,24,05,05,10.20
2012,09,24,05,06,10.20
2012,09,24,05,07,10.20
2012,09,24,05,08,10.20
2012,09,24,05,09,10.20
2012,09,24,05,10,10.20
2012,09,24,05,11,10.10
2012,09,24,05,12,10.10
2012,09,24,05,13,10.10
2012,09,24,05,14,10.10
2012,09,24,05,15,10.10
2012,09,24,05,16,10.10
2012,09,24,05,17,10.10
2012,09,24,05,18,10.10
2012,09,24,05,19,10.10
2012,09,24,05,20,10.10
2012,09,24,05,21,10.10
2012,09,24,05,22,10.10
2012,09,24,05,23,10.10
2012,09,24,05,24,10.10
2012,09,24,05,25,10.10
2012,09,24,05,26,10.10
2012,09,24,05,27,10.10
2012,09,24,05,28,10.10
2012,09,24,05,29,10.10
2012,09,24,05,30,10.00
2012,09,24,05,31,10.00
2012,09,24,05,32,10.00
2012,09,24,05,33,10.00
2012,09,24,05,34,10.00
2012,09,24,05,35,9.90
2012,09,24,05,36,9.90
2012,09,24,05,37,9.90
2012,09,24,05,38,9.90
2012,09,24,05,39,9.90
2012,09,24,05,40,9.90
2012,09,24,05,41,9.90
2012,09,24,05,42,9.90
2012,09,24,05,43,9.90
2012,09,24,05,44,9.90
2012,09,24,05,45,9.90
2012,09,24,05,46,9.90
2012,09,24,05,47,9.90
2012,09,24,05,48,10.00
2012,09,24,05,49,10.00
2012,09,24,05,50,10.00
2012,09,24,05,51,10.00
2012,09,24,05,52,10.00
2012,09,24,05,53,10.00
2012,09,24,05,54,9.90
2012,09,24,05,55,9.90
2012,09,24,05,56,9.90
2012,09,24,05,57,9.90
2012,09,24,05,58,9.90
2012,09,24,05,59,9.90
2012,09,24,06,00,9.90
2012,09,24,06,01,9.90
2012,09,24,06,02,9.90
2012,09,24,06,03,9.90
2012,09,24,06,04,9.90
2012,09,24,06,05,9.90
2012,09,24,06,06,9.90
2012,09,24,06,07,9.90
2012,09,24,06,08,9.90
2012,09,24,06,09,9.90
2012,09,24,06,10,9.90
2012,09,24,06,11,9.90
2012,09,24,06,12,9.90
2012,09,24,06,13,9.90
2012,09,24,06,14,9.90
2012,09,24,06,15,9.90
2012,09,24,06,16,9.80
2012,09,24,06,17,9.80
2012,09,24,06,18,9.80
2012,09,24,06,19,9.80
2012,09,24,06,20,9.80
2012,09,24,06,21,9.80
2012,09,24,06,22,9.80
2012,09,24,06,23,9.70
2012,09,24,06,24,9.70
2012,09,24,06,25,9.70
2012,09,24,06,26,9.70
2012,09,24,06,27,9.70
2012,09,24,06,28,9.70
2012,09,24,06,29,9.70
2012,09,24,06,30,9.70
2012,09,24,06,31,9.70
2012,09,24,06,32,9.70
2012,09,24,06,33,9.70
2012,09,24,06,34,9.70
2012,09,24,06,35,9.70
2012,09,24,06,36,9.70
2012,09,24,06,37,9.70
2012,09,24,06,38,9.60
2012,09,24,06,39,9.60
2012,09,24,06,40,9.60
2012,09,24,06,41,9.70
2012,09,24,06,42,9.70
2012,09,24,06,43,9.70
2012,09,24,06,44,9.70
2012,09,24,06,45,9.70
2012,09,24,06,46,9.70
2012,09,24,06,47,9.70
2012,09,24,06,48,9.70
2012,09,24,06,49,9.70
2012,09,24,06,50,9.70
2012,09,24,06,51,9.70
2012,09,24,06,52,9.70
2012,09,24,06,53,9.70
2012,09,24,06,54,9.70
2012,09,24,06,55,9.80
2012,09,24,06,56,9.80
2012,09,24,06,57,9.80
2012,09,24,06,58,9.80
2012,09,24,06,59,9.80
2012,09,24,07,00,9.80
2012,09,24,07,01,9.80
2012,09,24,07,02,9.80
2012,09,24,07,03,9.90
2012,09,24,07,04,9.80
2012,09,24,07,05,9.90
2012,09,24,07,06,9.90
2012,09,24,07,07,9.80
2012,09,24,07,08,9.80
2012,09,24,07,09,9.80
2012,09,24,07,10,9.80
2012,09,24,07,11,9.80
2012,09,24,07,12,9.80
2012,09,24,07,13,9.80
2012,09,24,07,14,9.80
2012,09,24,07,15,9.80
2012,09,24,07,16,9.80
2012,09,24,07,17,9.90
2012,09,24,07,18,9.90
2012,09,24,07,19,9.90
2012,09,24,07,20,9.90
2012,09,24,07,21,9.90
2012,09,24,07,22,9.90
2012,09,24,07,23,9.90
2012,09,24,07,24,9.90
2012,09,24,07,25,9.90
2012,09,24,07,26,9.90
2012,09,24,07,27,10.00
2012,09,24,07,28,10.00
2012,09,24,07,29,10.00
2012,09,24,07,30,10.00
2012,09,24,07,31,10.00
2012,09,24,07,32,10.10
2012,09,24,07,33,10.10
2012,09,24,07,34,10.10
2012,09,24,07,35,10.10
2012,09,24,07,36,10.10
2012,09,24,07,37,10.10
2012,09,24,07,38,10.10
2012,09,24,07,39,10.10
2012,09,24,07,40,10.20
2012,09,24,07,41,10.20
2012,09,24,07,42,10.20
2012,09,24,07,43,10.20
2012,09,24,07,44,10.20
2012,09,24,07,45,10.20
2012,09,24,07,46,10.20
2012,09,24,07,47,10.20
2012,09,24,07,48,10.20
2012,09,24,07,49,10.20
2012,09,24,07,50,10.20
2012,09,24,07,51,10.20
2012,09,24,07,52,10.20
2012,09,24,07,53,10.20
2012,09,24,07,54,10.20
2012,09,24,07,55,10.30
2012,09,24,07,56,10.30
2012,09,24,07,57,10.30
2012,09,24,07,58,10.30
2012,09,24,07,59,10.30
2012,09,24,08,00,10.30
2012,09,24,08,01,10.30
2012,09,24,08,02,10.30
2012,09,24,08,03,10.30
2012,09,24,08,04,10.30
2012,09,24,08,05,10.30
2012,09,24,08,06,10.30
2012,09,24,08,07,10.30
2012,09,24,08,08,10.30
2012,09,24,08,09,10.30
2012,09,24,08,10,10.40
2012,09,24,08,11,10.40
2012,09,24,08,12,10.40
2012,09,24,08,13,10.40
2012,09,24,08,14,10.40
2012,09,24,08,15,10.40
2012,09,24,08,16,10.50
2012,09,24,08,17,10.50
2012,09,24,08,18,10.50
2012,09,24,08,19,10.50
2012,09,24,08,20,10.60
2012,09,24,08,21,10.60
2012,09,24,08,22,10.60
2012,09,24,08,23,10.60
2012,09,24,08,24,10.60
2012,09,24,08,25,10.60
2012,09,24,08,26,10.60
2012,09,24,08,27,10.60
2012,09,24,08,28,10.70
2012,09,24,08,29,10.70
2012,09,24,08,30,10.70
2012,09,24,08,31,10.70
2012,09,24,08,32,10.70
2012,09,24,08,33,10.70
2012,09,24,08,34,10.70
2012,09,24,08,35,10.80
2012,09,24,08,36,10.80
2012,09,24,08,37,10.80
2012,09,24,08,38,10.80
2012,09,24,08,39,10.80
2012,09,24,08,40,10.90
2012,09,24,08,41,10.90
2012,09,24,08,42,10.90
2012,09,24,08,43,10.90
2012,09,24,08,44,11.00
2012,09,24,08,45,11.00
2012,09,24,08,46,11.10
2012,09,24,08,47,11.10
2012,09,24,08,48,11.10
2012,09,24,08,49,11.10
2012,09,24,08,50,11.20
2012,09,24,08,51,11.20
2012,09,24,08,52,11.20
2012,09,24,08,53,11.20
2012,09,24,08,54,11.20
2012,09,24,08,55,11.20
2012,09,24,08,56,11.20
2012,09,24,08,57,11.30
2012,09,24,08,58,11.30
2012,09,24,08,59,11.30
2012,09,24,09,00,11.30
2012,09,24,09,01,11.40
2012,09,24,09,02,11.40
2012,09,24,09,03,11.40
2012,09,24,09,04,11.40
2012,09,24,09,05,11.40
2012,09,24,09,06,11.50
2012,09,24,09,07,11.50
2012,09,24,09,08,11.50
2012,09,24,09,09,11.50
2012,09,24,09,10,11.60
2012,09,24,09,11,11.60
2012,09,24,09,12,11.60
2012,09,24,09,13,11.60
2012,09,24,09,14,11.60
2012,09,24,09,15,11.60
2012,09,24,09,16,11.60
2012,09,24,09,17,11.60
2012,09,24,09,18,11.60
2012,09,24,09,19,11.60
2012,09,24,09,20,11.60
2012,09,24,09,21,11.60
2012,09,24,09,22,11.60
2012,09,24,09,23,11.60
2012,09,24,09,24,11.60
2012,09,24,09,25,11.60
2012,09,24,09,26,11.60
2012,09,24,09,27,11.60
2012,09,24,09,28,11.60
2012,09,24,09,29,11.60
2012,09,24,09,30,11.60
2012,09,24,09,31,11.60
2012,09,24,09,32,11.60
2012,09,24,09,33,11.70
2012,09,24,09,34,11.70
2012,09,24,09,35,11.70
2012,09,24,09,36,11.70
2012,09,24,09,37,11.70
2012,09,24,09,38,11.70
2012,09,24,09,39,11.70
2012,09,24,09,40,11.80
2012,09,24,09,41,11.80
2012,09,24,09,42,11.80
2012,09,24,09,43,11.80
2012,09,24,09,44,11.80
2012,09,24,09,45,11.80
2012,09,24,09,46,11.90
2012,09,24,09,47,11.90
2012,09,24,09,48,11.90
2012,09,24,09,49,11.90
2012,09,24,09,50,11.90
2012,09,24,09,51,12.00
2012,09,24,09,52,12.00
2012,09,24,09,53,12.10
2012,09,24,09,54,12.10
2012,09,24,09,55,12.10
2012,09,24,09,56,12.20
2012,09,24,09,57,12.20
2012,09,24,09,58,12.20
2012,09,24,09,59,12.30
2012,09,24,10,00,12.30
2012,09,24,10,01,12.30
2012,09,24,10,02,12.30
2012,09,24,10,03,12.40
2012,09,24,10,04,12.40
2012,09,24,10,05,12.50
2012,09,24,10,06,12.60
2012,09,24,10,07,12.60
2012,09,24,10,08,12.70
2012,09,24,10,09,12.70
2012,09,24,10,10,12.80
2012,09,24,10,11,12.80
2012,09,24,10,12,12.80
2012,09,24,10,13,12.90
2012,09,24,10,14,12.90
2012,09,24,10,15,13.00
2012,09,24,10,16,13.10
2012,09,24,10,17,13.10
2012,09,24,10,18,13.20
2012,09,24,10,19,13.20
2012,09,24,10,20,13.20
2012,09,24,10,21,13.30
2012,09,24,10,22,13.30
2012,09,24,10,23,13.30
2012,09,24,10,24,13.30
2012,09,24,10,25,13.30
2012,09,24,10,26,13.30
2012,09,24,10,27,13.30
2012,09,24,10,28,13.30
2012,09,24,10,29,13.30
2012,09,24,10,30,13.30
2012,09,24,10,31,13.30
2012,09,24,10,32,13.30
2012,09,24,10,33,13.30
2012,09,24,10,34,13.30
2012,09,24,10,35,13.30
2012,09,24,10,36,13.30
2012,09,24,10,37,13.30
2012,09,24,10,38,13.30
2012,09,24,10,39,13.30
2012,09,24,10,40,13.40
2012,09,24,10,41,13.40
2012,09,24,10,42,13.40
2012,09,24,10,43,13.40
2012,09,24,10,44,13.50
2012,09,24,10,45,13.50
2012,09,24,10,46,13.60
2012,09,24,10,47,13.60
2012,09,24,10,48,13.70
2012,09,24,10,49,13.70
2012,09,24,10,50,13.80
2012,09,24,10,51,13.80
2012,09,24,10,52,13.80
2012,09,24,10,53,13.90
2012,09,24,10,54,13.90
2012,09,24,10,55,13.90
2012,09,24,10,56,13.90
2012,09,24,10,57,13.90
2012,09,24,10,58,13.90
2012,09,24,10,59,13.90
2012,09,24,11,00,14.00
2012,09,24,11,01,14.00
2012,09,24,11,02,14.10
2012,09,24,11,03,14.10
2012,09,24,11,04,14.20
2012,09,24,11,05,14.20
2012,09,24,11,06,14.20
2012,09,24,11,07,14.20
2012,09,24,11,08,14.30
2012,09,24,11,09,14.30
2012,09,24,11,10,14.30
2012,09,24,11,11,14.30
2012,09,24,11,12,14.30
2012,09,24,11,13,14.40
2012,09,24,11,14,14.40
2012,09,24,11,15,14.50
2012,09,24,11,16,14.60
2012,09,24,11,17,14.60
2012,09,24,11,18,14.60
2012,09,24,11,19,14.70
2012,09,24,11,20,14.70
2012,09,24,11,21,14.80
2012,09,24,11,22,14.80
2012,09,24,11,23,14.80
2012,09,24,11,24,14.80
2012,09,24,11,25,14.80
2012,09,24,11,26,14.80
2012,09,24,11,27,14.80
2012,09,24,11,28,14.90
2012,09,24,11,29,14.90
2012,09,24,11,30,14.90
2012,09,24,11,31,14.90
2012,09,24,11,32,14.90
2012,09,24,11,33,14.90
2012,09,24,11,34,14.90
2012,09,24,11,35,15.00
2012,09,24,11,36,15.00
2012,09,24,11,37,15.00
2012,09,24,11,38,15.00
2012,09,24,11,39,15.00
2012,09,24,11,40,15.10
2012,09,24,11,41,15.10
2012,09,24,11,42,15.10
2012,09,24,11,43,15.20
2012,09,24,11,44,15.20
2012,09,24,11,45,15.20
2012,09,24,11,46,15.30
2012,09,24,11,47,15.30
2012,09,24,11,48,15.40
2012,09,24,11,49,15.40
2012,09,24,11,50,15.50
2012,09,24,11,51,15.60
2012,09,24,11,52,15.60
2012,09,24,11,53,15.60
2012,09,24,11,54,15.60
2012,09,24,11,55,15.60
2012,09,24,11,56,15.90
2012,09,24,11,57,15.90
2012,09,24,11,58,16.00
2012,09,24,11,59,16.00
2012,09,24,12,00,16.10
2012,09,24,12,01,16.10
2012,09,24,12,02,16.20
2012,09,24,12,03,16.20
2012,09,24,12,04,16.20
2012,09,24,12,05,16.20
2012,09,24,12,06,16.30
2012,09,24,12,07,16.30
2012,09,24,12,08,16.30
2012,09,24,12,09,16.30
2012,09,24,12,10,16.30
2012,09,24,12,11,16.30
2012,09,24,12,12,16.30
2012,09,24,12,13,16.30
2012,09,24,12,14,16.30
2012,09,24,12,15,16.30
2012,09,24,12,16,16.20
2012,09,24,12,17,16.20
2012,09,24,12,18,16.20
2012,09,24,12,19,16.20
2012,09,24,12,20,16.20
2012,09,24,12,21,16.20
2012,09,24,12,22,16.20
2012,09,24,12,23,16.30
2012,09,24,12,24,16.30
2012,09,24,12,25,16.30
2012,09,24,12,26,16.40
2012,09,24,12,27,16.50
2012,09,24,12,28,16.60
2012,09,24,12,29,16.60
2012,09,24,12,30,16.70
2012,09,24,12,31,16.80
2012,09,24,12,32,16.90
2012,09,24,12,33,16.90
2012,09,24,12,34,17.00
2012,09,24,12,35,17.10
2012,09,24,12,36,17.10
2012,09,24,12,37,17.10
2012,09,24,12,38,17.10
2012,09,24,12,39,17.10
2012,09,24,12,40,17.20
2012,09,24,12,41,17.20
2012,09,24,12,42,17.20
2012,09,24,12,43,17.30
2012,09,24,12,44,17.30
2012,09,24,12,45,17.40
2012,09,24,12,46,17.40
2012,09,24,12,47,17.50
2012,09,24,12,48,17.50
2012,09,24,12,49,17.50
2012,09,24,12,50,17.50
2012,09,24,12,51,17.60
2012,09,24,12,52,17.60
2012,09,24,12,53,17.60
2012,09,24,12,54,17.60
2012,09,24,12,55,17.60
2012,09,24,12,56,17.60
2012,09,24,12,57,17.60
2012,09,24,12,58,17.60
2012,09,24,12,59,17.60
2012,09,24,13,00,17.70
2012,09,24,13,01,17.70
2012,09,24,13,02,17.80
2012,09,24,13,03,17.80
2012,09,24,13,04,17.90
2012,09,24,13,05,18.00
2012,09,24,13,06,18.00
2012,09,24,13,07,18.10
2012,09,24,13,08,18.10
2012,09,24,13,09,18.10
2012,09,24,13,10,18.20
2012,09,24,13,11,18.20
2012,09,24,13,12,18.30
2012,09,24,13,13,18.30
2012,09,24,13,14,18.40
2012,09,24,13,15,18.40
2012,09,24,13,16,18.40
2012,09,24,13,17,18.40
2012,09,24,13,18,18.40
2012,09,24,13,19,18.40
2012,09,24,13,20,18.40
2012,09,24,13,21,18.40
2012,09,24,13,22,18.40
2012,09,24,13,23,18.40
2012,09,24,13,24,18.40
2012,09,24,13,25,18.40
2012,09,24,13,26,18.50
2012,09,24,13,27,18.50
2012,09,24,13,28,18.50
2012,09,24,13,29,18.40
2012,09,24,13,30,18.40
2012,09,24,13,31,18.40
2012,09,24,13,32,18.40
2012,09,24,13,33,18.40
2012,09,24,13,34,18.40
2012,09,24,13,35,18.40
2012,09,24,13,36,18.40
2012,09,24,13,37,18.40
2012,09,24,13,38,18.40
2012,09,24,13,39,18.40
2012,09,24,13,40,18.50
2012,09,24,13,41,18.50
2012,09,24,13,42,18.50
2012,09,24,13,43,18.50
2012,09,24,13,44,18.60
2012,09,24,13,45,18.60
2012,09,24,13,46,18.70
2012,09,24,13,47,18.80
2012,09,24,13,48,18.80
2012,09,24,13,49,18.80
2012,09,24,13,50,18.80
2012,09,24,13,51,18.80
2012,09,24,13,52,18.80
2012,09,24,13,53,18.70
2012,09,24,13,54,18.80
2012,09,24,13,55,18.80
2012,09,24,13,56,18.80
2012,09,24,13,57,18.80
2012,09,24,13,58,18.80
2012,09,24,13,59,18.90
2012,09,24,14,00,18.90
2012,09,24,14,01,19.00
2012,09,24,14,02,19.00
2012,09,24,14,03,19.10
2012,09,24,14,04,19.10
2012,09,24,14,05,19.20
2012,09,24,14,06,19.20
2012,09,24,14,07,19.20
2012,09,24,14,08,19.20
2012,09,24,14,09,19.20
2012,09,24,14,10,19.20
2012,09,24,14,11,19.20
2012,09,24,14,12,19.20
2012,09,24,14,13,19.30
2012,09,24,14,14,19.30
2012,09,24,14,15,19.30
2012,09,24,14,16,19.40
2012,09,24,14,17,19.40
2012,09,24,14,18,19.40
2012,09,24,14,19,19.50
2012,09,24,14,20,19.50
2012,09,24,14,21,19.60
2012,09,24,14,22,19.60
2012,09,24,14,23,19.70
2012,09,24,14,24,19.70
2012,09,24,14,25,19.70
2012,09,24,14,26,19.70
2012,09,24,14,27,19.70
2012,09,24,14,28,19.70
2012,09,24,14,29,19.70
2012,09,24,14,30,19.80
2012,09,24,14,31,19.80
2012,09,24,14,32,19.90
2012,09,24,14,33,19.90
2012,09,24,14,34,19.90
2012,09,24,14,35,19.90
2012,09,24,14,36,19.90
2012,09,24,14,37,19.90
2012,09,24,14,38,19.90
2012,09,24,14,39,20.00
2012,09,24,14,40,20.10
2012,09,24,14,41,20.10
2012,09,24,14,42,20.20
2012,09,24,14,43,20.20
2012,09,24,14,44,20.30
2012,09,24,14,45,20.30
2012,09,24,14,46,20.30
2012,09,24,14,47,20.30
2012,09,24,14,48,20.30
2012,09,24,14,49,20.30
2012,09,24,14,50,20.30
2012,09,24,14,51,20.30
2012,09,24,14,52,20.30
2012,09,24,14,53,20.30
2012,09,24,14,54,20.30
2012,09,24,14,55,20.30
2012,09,24,14,56,20.30
2012,09,24,14,57,20.30
2012,09,24,14,58,20.30
2012,09,24,14,59,20.30
2012,09,24,15,00,20.30
2012,09,24,15,01,20.30
2012,09,24,15,02,20.40
2012,09,24,15,03,20.40
2012,09,24,15,04,20.40
2012,09,24,15,05,20.50
2012,09,24,15,06,20.50
2012,09,24,15,07,20.50
2012,09,24,15,08,20.60
2012,09,24,15,09,20.70
2012,09,24,15,10,20.70
2012,09,24,15,11,20.70
2012,09,24,15,12,20.70
2012,09,24,15,13,20.70
2012,09,24,15,14,20.70
2012,09,24,15,15,20.70
2012,09,24,15,16,20.70
2012,09,24,15,17,20.70
2012,09,24,15,18,20.80
2012,09,24,15,19,20.80
2012,09,24,15,20,20.80
2012,09,24,15,21,20.90
2012,09,24,15,22,21.00
2012,09,24,15,23,21.00
2012,09,24,15,24,21.10
2012,09,24,15,25,21.20
2012,09,24,15,26,21.20
2012,09,24,15,27,21.30
2012,09,24,15,28,21.30
2012,09,24,15,29,21.30
2012,09,24,15,30,21.30
2012,09,24,15,31,21.30
2012,09,24,15,32,21.30
2012,09,24,15,33,21.40
2012,09,24,15,34,21.50
2012,09,24,15,35,21.60
2012,09,24,15,36,21.60
2012,09,24,15,37,21.60
2012,09,24,15,38,21.70
2012,09,24,15,39,21.60
2012,09,24,15,40,21.70
2012,09,24,15,41,21.70
2012,09,24,15,42,21.80
2012,09,24,15,43,21.90
2012,09,24,15,44,22.00
2012,09,24,15,45,22.20
2012,09,24,15,46,22.30
2012,09,24,15,47,22.40
2012,09,24,15,48,22.40
2012,09,24,15,49,22.40
2012,09,24,15,50,22.40
2012,09,24,15,51,22.30
2012,09,24,15,52,22.10
2012,09,24,15,53,22.00
2012,09,24,15,54,21.80
2012,09,24,15,55,21.80
2012,09,24,15,56,21.80
2012,09,24,15,57,21.70
2012,09,24,15,58,21.70
2012,09,24,15,59,21.70
2012,09,24,16,00,21.60
2012,09,24,16,01,21.50
2012,09,24,16,02,21.50
2012,09,24,16,03,21.50
2012,09,24,16,04,21.50
2012,09,24,16,05,21.60
2012,09,24,16,06,21.60
2012,09,24,16,07,21.70
2012,09,24,16,08,21.70
2012,09,24,16,09,21.70
2012,09,24,16,10,21.70
2012,09,24,16,11,21.70
2012,09,24,16,12,21.70
2012,09,24,16,13,21.70
2012,09,24,16,14,21.70
2012,09,24,16,15,21.80
2012,09,24,16,16,21.80
2012,09,24,16,17,21.80
2012,09,24,16,18,21.90
2012,09,24,16,19,21.90
2012,09,24,16,20,22.00
2012,09,24,16,21,22.10
2012,09,24,16,22,22.20
2012,09,24,16,23,22.20
2012,09,24,16,24,22.20
2012,09,24,16,25,22.30
2012,09,24,16,26,22.30
2012,09,24,16,27,22.30
2012,09,24,16,28,22.30
2012,09,24,16,29,22.30
2012,09,24,16,30,22.40
2012,09,24,16,31,22.50
2012,09,24,16,32,22.60
2012,09,24,16,33,22.60
2012,09,24,16,34,22.60
2012,09,24,16,35,22.70
2012,09,24,16,36,22.70
2012,09,24,16,37,22.70
2012,09,24,16,38,22.70
2012,09,24,16,39,22.80
2012,09,24,16,40,22.80
2012,09,24,16,41,22.80
2012,09,24,16,42,22.80
2012,09,24,16,43,22.80
2012,09,24,16,44,22.90
2012,09,24,16,45,22.90
2012,09,24,16,46,22.90
2012,09,24,16,47,23.00
2012,09,24,16,48,23.00
2012,09,24,16,49,22.90
2012,09,24,16,50,22.80
2012,09,24,16,51,22.60
2012,09,24,16,52,22.50
2012,09,24,16,53,22.40
2012,09,24,16,54,22.30
2012,09,24,16,55,22.20
2012,09,24,16,56,22.10
2012,09,24,16,57,22.00
2012,09,24,16,58,21.90
2012,09,24,16,59,21.90
2012,09,24,17,00,21.90
2012,09,24,17,01,21.90
2012,09,24,17,02,21.80
2012,09,24,17,03,21.70
2012,09,24,17,04,21.70
2012,09,24,17,05,21.60
2012,09,24,17,06,21.60
2012,09,24,17,07,21.60
2012,09,24,17,08,21.50
2012,09,24,17,09,21.50
2012,09,24,17,10,21.50
2012,09,24,17,11,21.40
2012,09,24,17,12,21.40
2012,09,24,17,13,21.40
2012,09,24,17,14,21.40
2012,09,24,17,15,21.40
2012,09,24,17,16,21.40
2012,09,24,17,17,21.40
2012,09,24,17,18,21.30
2012,09,24,17,19,21.40
2012,09,24,17,20,21.40
2012,09,24,17,21,21.40
2012,09,24,17,22,21.40
2012,09,24,17,23,21.40
2012,09,24,17,24,21.40
2012,09,24,17,25,21.30
2012,09,24,17,26,21.30